Simultaneous Nadir Overpasses (SNOs) Predictions

Prediction of SNOs between AQUA and METOP-B Satellite Orbit:

Table of predicted SNOs for the next 14.0 days since TLE Epoch: 4/15/2014
Index Date (AQUA) Time (AQUA) Lat,Lon (AQUA) SZA (AQUA ) Date (METOP-B) Time (METOP-B) Lat,Lon (METOP-B) SZA (METOP-B ) Distance(km) Time Diff (sec)
1 04/17/2014 05:25:57 73.77, 93.06 63.31 04/17/2014 05:25:19 73.78, 93.15 63.33 3.37 38
2 04/17/2014 06:15:23 -73.80, -99.37 116.68 04/17/2014 06:16:01 -73.81, -99.47 116.67 3.19 38
3 04/20/2014 01:00:10 73.77, 159.50 62.33 04/20/2014 00:59:39 73.79, 159.58 62.35 3.12 31
4 04/20/2014 01:49:36 -73.80, -32.93 117.66 04/20/2014 01:50:21 -73.81, -33.04 117.65 3.70 45
5 04/22/2014 19:44:41 -73.07, 59.77 119.36 04/22/2014 19:43:35 -73.04, 56.97 119.30 90.90 66
6 04/22/2014 20:34:22 73.78,-134.07 61.38 04/22/2014 20:33:59 73.79,-134.01 61.39 2.02 23
7 04/22/2014 21:23:49 -73.86, 33.40 118.56 04/22/2014 21:24:40 -73.86, 33.50 118.56 3.01 51
8 04/25/2014 15:18:59 -73.45, 125.46 119.90 04/25/2014 15:17:48 -73.38, 124.13 119.91 42.64 71
9 04/25/2014 16:08:32 73.79, -67.64 60.46 04/25/2014 16:08:18 73.78, -67.62 60.45 1.37 14
10 04/25/2014 16:57:59 -73.86, 99.84 119.48 04/25/2014 16:58:59 -73.86, 99.89 119.50 1.86 60
11 04/28/2014 10:53:13 -73.71,-168.66 120.52 04/28/2014 10:52:00 -73.72,-168.68 120.50 0.96 73
12 04/28/2014 11:42:42 73.80, -1.21 59.57 04/28/2014 11:42:37 73.81, -1.12 59.58 3.19 5




NCC Satellite Simultaneous Nadir Overpasses (SNOs) Prediction Service
